AirNav   Everest Fuels
 
 1605 users online  

CN48 St Joseph's Medical Center Heliport
Stockton, California, USA

GOING TO STOCKTON?


FAA INFORMATION EFFECTIVE 10 SEPTEMBER 2020

Location

FAA Identifier: CN48
Lat/Long: 37-58-12.7100N 121-17-16.3000W
37-58.211833N 121-17.271667W
37.9701972,-121.2878611
(estimated)
Elevation: 47 ft. / 14 m (estimated)
Variation: 13E (2020)
From city: 1 mile NNE of STOCKTON, CA
Time zone: UTC -7 (UTC -8 during Standard Time)
Zip code: 95202

Heliport Operations

Heliport use: Private use. Permission required prior to landing
Activation date: 05/2018
Control tower: no
ARTCC: OAKLAND CENTER
FSS: RANCHO MURIETA FLIGHT SERVICE STATION
Attendance: ON CALL
209-461-5193
Wind indicator: lighted
Segmented circle: no
Lights: CALL 209-467-6444
Beacon: white-yellow (lighted seaplane base)
CALL 209-467-6444

Heliport Communications

NORCAL APPROACH: 125.1
NORCAL DEPARTURE: 125.1
WX ASOS at SCK (5 nm SE): PHONE 209-982-4270
WX AWOS-3 at C83 (18 nm SW): 123.775 (925-634-0906)
WX AWOS-3 at TCY (18 nm SW): 118.375 (209-831-4335)

Nearby radio navigation aids

VOR radial/distance  VOR name  Freq  Var
LINr228/14.8LINDEN VOR/DME114.8017E
MODr306/25.8MODESTO VOR/DME114.6017E
SACr139/31.0SACRAMENTO VORTAC115.2017E
CCRr080/36.1CONCORD VOR/DME117.0017E

Heliport Services

Runway Information

Helipad H1

Dimensions: 40 x 40 ft. / 12 x 12 m
Surface: concrete, in excellent condition
ROOFTOP
Runway edge lights: PERI
Latitude: 37-58.211833N
Longitude: 121-17.271667W
Elevation: 47.0 ft.
Traffic pattern: leftleft
Markings: basic, in good condition

Heliport Ownership and Management from official FAA records

Ownership: Privately-owned
Owner: ST JOSEPH-S MEDICAL CENTER
1800 NORTH CALIFORNIA ST
STOCKTON, CA 95207
Phone 906-943-2000
Manager: KEN BLACK
1800 NORTH CALIFORNIA ST
STOCKTON, CA 95207
Phone 209-461-5193

Heliport Operational Statistics

Aircraft based on the field: 1
Helicopters: 1
    

Additional Remarks

NORTHERN FAR PART 77 TRSNL SFC PENETRATED BY OBSTN LGTD ANT TOWER.
MEDICAL FACILITY.

Instrument Procedures

There are no published instrument procedures at CN48.

Some nearby airports with instrument procedures:

KSCK - Stockton Metropolitan Airport (5 nm SE)
1O3 - Lodi Airport (14 nm N)
C83 - Byron Airport (18 nm SW)
KTCY - Tracy Municipal Airport (18 nm SW)
O88 - Rio Vista Municipal Airport (24 nm NW)
 
Loc | Ops | Rwys | IFR | FBO | Links
Com | Nav | Svcs | Stats | Notes
Aerial photo
No photo
 
Airport distance calculator
Flying to St Joseph's Medical Center Heliport? Find the distance to fly.

From to CN48

Sunrise and sunset
Times for 28-Sep-2020
 Local
(UTC-7)
 Zulu
(UTC)
Morning civil twilight06:3413:34
Sunrise07:0014:00
Sunset18:5101:51
Evening civil twilight19:1702:17

Current date and time
Zulu (UTC)  28-Sep-2020 15:30:19
Local (UTC-7)  28-Sep-2020 08:30:19
 
METAR
KSCK 
6nm SE 
281455Z AUTO 26005KT 10SM CLR 19/07 A2993 RMK AO2 SLP133 T01890072 53013
KC83 
18nm SW 
281515Z AUTO 31007KT 10SM CLR 26/M01 A2994 RMK AO2
KTCY 
18nm SW 
281515Z AUTO 29007KT 10SM CLR 26/M01 A2995 RMK A01
TAF
KSCK 
6nm SE 
280541Z 2806/2906 VRB04KT P6SM SKC FM281800 36005KT P6SM SKC
NOTAMs
Click for the latest NOTAMs
NOTAMs are issued by the DoD/FAA and will open in a separate window not controlled by AirNav.

 

 
 

Would you like to see your business listed on this page?

 If your business provides an interesting product or service to pilots, flight crews, aircraft, or users of the St Joseph's Medical Center Heliport, you should consider listing it here.  To start the listing process, click on the button below
 
Add a business
 

Other Pages about St Joseph's Medical Center Heliport

Update a link
 
Copyright © AirNav, LLC. All rights reserved. Privacy Policy  Contact